Theta_e
322 319 321 322 323 322 322 322 325 325 324 326 329 330 331 337 337 336 336 337 339 340 340 341 342 343 344 346 347 347 346 342 341 345 348 347 344 330 326 323 322 322 320 321
321 320 320 322 322 324 324 323 323 324 324 322 328 330 332 335 337 338 338 338 338 338 339 339 339 339 341 343 344 346 346 345 345 346 348 348 340 340 332 326 324 321 320 323
321 318 318 320 322 322 324 323 324 325 326 323 328 330 331 333 337 339 339 339 339 339 338 337 337 337 339 340 343 344 345 346 347 349 350 348 335 335 338 327 320 319 321 325
322 321 322 322 323 323 325 330 328 328 325 325 328 331 333 334 335 337 338 338 339 336 336 336 337 338 338 339 340 341 343 345 348 350 349 347 337 335 335 331 324 325 326 326
320 319 323 332 332 331 332 332 331 332 331 330 329 330 331 332 333 333 335 336 335 337 338 330 328 332 334 336 341 343 344 345 347 348 349 346 338 332 336 336 332 333 331 330
322 323 330 329 330 331 330 333 329 329 329 328 329 329 328 331 331 334 335 337 336 330 329 328 328 329 328 331 339 340 344 346 348 348 349 346 342 333 336 338 338 335 334 332
330 330 330 330 329 330 333 329 328 328 329 330 329 329 332 333 333 332 332 332 332 333 332 333 331 332 332 332 332 337 343 348 348 348 349 345 339 338 338 337 337 332 331 325
333 334 335 328 330 331 330 329 330 330 330 329 330 334 331 329 328 328 328 328 328 327 326 326 326 331 334 334 339 335 344 348 347 347 346 342 339 338 337 335 334 330 327 328
331 331 327 326 325 328 329 328 327 327 327 330 331 331 330 330 330 330 330 330 329 328 327 326 326 331 326 340 339 344 347 346 344 342 341 339 337 334 333 331 328 326 325 326
331 328 326 322 324 325 325 325 326 329 331 331 331 331 333 333 332 330 331 331 332 332 332 332 332 340 342 345 345 346 344 342 341 338 336 332 328 327 329 329 328 325 328 327
328 326 324 320 321 320 320 321 323 325 326 327 329 329 331 333 336 336 338 335 332 331 330 335 338 343 344 345 344 341 339 339 337 339 337 335 332 330 327 327 325 324 326 327
327 325 326 321 321 321 322 321 322 322 321 322 323 324 325 328 330 337 337 335 336 332 333 332 332 336 341 341 339 337 334 331 332 335 331 330 329 330 328 326 323 325 325 328
322 320 320 320 318 319 320 319 319 320 320 320 320 321 322 322 323 324 326 331 336 335 331 335 338 340 340 339 338 337 334 332 330 326 326 326 328 327 325 325 325 326 327 325
319 319 318 319 317 318 319 318 318 318 318 318 318 319 318 319 320 321 321 323 324 333 337 337 338 337 336 335 332 331 326 325 328 326 327 325 323 321 324 328 327 324 323 323
319 319 319 318 318 317 316 315 314 315 315 316 317 317 317 317 317 318 319 320 320 326 337 338 336 334 331 328 326 327 327 327 323 325 328 329 328 328 326 327 325 323 322 321
317 317 317 317 317 317 316 316 316 316 317 317 317 317 316 315 314 314 318 319 320 322 331 337 335 332 327 325 325 326 328 327 328 329 328 327 327 326 325 323 323 323 321 321
316 318 318 319 318 318 319 319 319 319 319 318 319 319 318 317 317 314 315 318 319 326 334 335 333 328 325 327 326 324 327 326 323 321 322 322 322 323 323 322 321 320 319 317
320 319 319 319 319 319 319 319 318 318 318 320 319 319 319 321 321 319 319 319 322 330 333 331 326 327 327 327 327 326 323 321 322 324 325 325 323 323 323 321 320 319 318 315
318 318 318 319 319 318 318 318 318 318 320 320 319 319 320 321 323 322 323 325 329 332 330 329 328 327 327 326 326 324 323 324 323 323 323 323 323 323 322 320 319 319 316 316
318 318 318 316 316 316 317 317 319 320 319 319 318 318 320 321 323 323 327 329 327 327 328 327 327 326 325 325 325 323 321 320 320 320 321 322 322 321 320 318 317 317 317 318
316 316 316 315 315 316 317 317 318 318 318 319 319 319 321 321 322 323 323 324 324 324 324 323 324 324 324 322 321 321 320 320 319 318 317 316 317 318 317 317 316 318 316 315
315 314 314 314 314 314 316 318 318 318 320 320 321 321 321 322 322 321 321 321 320 321 321 320 321 321 320 319 319 318 315 314 315 313 313 312 311 313 314 313 313 312 311 312
314 314 314 314 314 315 316 318 319 318 320 321 321 321 321 320 320 319 320 320 319 318 316 315 314 314 315 317 316 313 313 313 312 311 311 311 310 311 310 309 309 309 309 308
315 315 314 314 314 315 315 315 317 320 319 320 321 320 317 317 318 319 320 320 320 318 316 313 313 314 315 314 313 313 313 312 311 309 307 307 310 311 312 312 310 308 307 307
315 315 314 314 314 315 313 314 313 315 318 318 317 317 317 317 317 317 317 317 318 317 316 316 314 314 314 314 313 312 312 311 310 310 308 306 306 306 306 307 306 306 306 306
315 315 315 315 314 313 314 313 312 313 315 316 314 314 314 314 314 316 316 315 313 315 315 315 315 314 314 313 313 312 312 311 311 310 309 308 306 305 306 306 306 304 304 304
315 315 314 313 311 312 312 313 312 312 312 313 313 313 313 313 313 314 314 314 316 316 314 312 313 314 314 313 313 312 311 310 310 309 309 308 306 306 306 305 305 304 304 303
Wind_Speed
22 11 8 8 8 10 8 7 8 10 11 11 12 13 18 26 24 25 30 33 37 40 40 38 38 41 45 47 50 54 55 54 51 49 49 46 41 33 26 24 23 20 20 18
20 16 12 10 8 10 9 3 7 3 9 10 8 9 11 24 28 30 34 39 38 36 37 36 35 37 40 42 43 45 49 54 53 50 51 51 44 33 30 24 23 22 24 23
12 7 7 7 20 10 7 6 10 8 13 7 6 9 16 23 29 34 38 40 37 35 32 28 27 30 33 35 37 40 41 44 47 47 47 47 28 22 33 24 21 27 28 25
14 4 6 13 6 14 16 5 7 4 7 9 8 24 21 24 34 39 40 34 33 27 25 23 20 20 21 24 29 32 35 37 39 41 39 43 27 28 34 31 28 27 25 24
5 6 4 1 3 5 8 6 2 5 2 4 7 4 2 6 18 22 28 26 22 15 7 5 3 8 12 16 21 25 29 31 33 35 36 40 34 32 34 38 32 27 22 21
3 7 7 4 3 3 4 1 6 4 6 7 11 5 3 6 2 7 10 13 15 15 11 6 3 3 7 12 18 20 24 25 25 26 32 39 31 26 35 39 36 30 22 16
1 1 3 4 9 7 5 3 6 3 7 12 6 9 19 26 26 23 21 17 10 7 4 3 3 6 8 10 13 13 16 21 23 20 27 31 30 28 30 29 30 23 24 24
3 4 0 18 9 5 6 18 23 27 31 35 30 31 34 31 30 27 24 20 16 12 8 9 11 14 13 20 18 10 11 13 15 19 25 21 19 21 25 26 23 19 22 28
1 2 8 16 5 14 19 29 30 34 28 26 27 24 24 24 22 21 19 16 15 14 14 14 18 17 16 17 12 9 7 9 13 17 17 16 18 16 12 10 10 15 29 21
3 6 8 19 17 21 28 32 30 28 29 23 22 20 21 20 16 14 13 11 13 14 19 16 17 15 10 10 7 7 5 9 12 14 15 15 18 15 9 6 19 25 21 15
6 4 3 17 18 23 29 33 32 30 25 23 17 22 20 16 14 14 13 12 11 13 15 14 14 11 7 6 7 8 10 10 9 17 20 20 18 10 12 23 20 19 17 16
5 13 12 15 13 21 28 31 29 27 27 26 21 18 15 17 17 13 12 10 11 12 12 13 12 8 4 2 3 7 13 20 17 20 20 17 15 17 14 17 17 16 19 17
6 24 28 27 26 23 30 26 23 23 21 20 20 17 16 15 14 13 12 10 8 8 7 8 6 4 3 7 9 12 11 16 15 14 17 20 17 15 13 16 18 18 12 10
27 24 21 17 16 21 21 20 17 17 17 16 16 15 14 13 11 13 13 12 12 9 8 5 5 4 9 12 11 10 13 14 14 16 16 16 14 12 15 14 12 8 7 8
26 27 26 16 18 16 14 13 13 14 15 14 14 13 14 14 12 11 11 12 13 12 11 12 11 12 12 13 15 14 17 18 14 10 11 12 12 13 15 10 8 8 7 8
21 20 17 17 16 15 13 13 14 14 14 14 14 15 16 16 16 14 12 13 14 14 17 20 17 15 18 17 14 12 10 8 7 5 4 6 5 6 8 9 10 10 9 8
15 19 16 18 17 16 15 13 13 13 14 13 12 14 17 17 15 12 11 12 14 12 11 19 17 16 16 12 9 9 9 7 6 5 4 4 3 5 7 7 8 8 8 8
16 15 14 12 14 15 15 14 13 12 12 11 13 15 17 17 14 9 8 11 12 9 10 16 16 13 11 13 14 12 9 7 7 7 8 8 8 10 7 7 7 9 10 10
15 15 14 13 13 13 14 14 14 13 9 11 15 16 16 17 13 10 9 11 7 5 8 11 13 11 13 13 9 10 9 8 7 7 8 9 11 10 8 8 8 9 11 11
16 15 13 13 13 13 13 11 11 11 12 14 13 12 13 14 10 5 5 5 3 2 5 9 11 9 6 7 8 7 7 7 7 6 7 9 10 10 9 9 10 12 13 12
14 13 12 13 13 12 13 9 10 10 11 11 11 11 12 11 11 7 4 1 1 1 4 4 6 5 7 6 5 5 5 4 4 4 6 8 9 10 10 10 9 9 10 12
6 7 8 9 11 10 9 7 8 6 5 6 6 5 6 7 6 4 3 6 5 4 4 4 5 4 3 2 1 2 3 3 2 1 3 5 6 7 8 8 9 8 9 10
6 7 8 8 8 9 11 9 6 4 3 4 5 7 9 9 8 6 4 3 3 4 5 3 2 2 1 1 1 2 3 2 4 7 9 11 14 14 12 10 9 9 10 11
8 8 6 8 11 9 7 8 8 5 2 3 3 6 7 7 6 5 3 3 2 3 5 4 4 4 4 4 4 5 7 6 7 9 7 6 6 12 16 13 13 14 16 16
9 8 6 8 11 7 4 7 8 8 6 4 4 3 6 8 5 4 2 1 2 4 4 6 7 7 8 8 8 8 9 9 8 9 10 12 9 8 8 9 11 14 17 19
7 6 9 10 8 8 6 8 8 9 8 3 4 4 5 6 7 5 4 4 4 4 6 7 9 9 9 10 11 12 13 14 13 12 12 13 14 12 10 9 11 10 15 18
8 8 6 5 5 5 7 6 9 9 8 7 9 10 11 11 12 12 10 9 11 10 9 8 10 13 13 13 14 15 14 14 15 14 14 12 13 15 15 14 12 11 10 10
Wind_Direction
224 193 179 205 180 172 178 187 167 234 199 228 212 209 209 215 211 206 212 216 223 225 229 233 237 241 242 242 241 240 240 241 239 236 231 229 223 224 232 231 228 230 236 240
229 208 194 224 212 178 196 134 245 250 225 222 221 183 159 206 207 209 213 217 222 230 235 240 244 248 249 249 247 246 245 247 245 239 232 231 221 231 223 222 228 228 234 239
240 180 177 233 232 209 191 182 173 185 223 169 187 202 213 200 205 212 217 220 221 226 233 239 247 255 257 260 255 252 255 252 251 245 236 227 221 247 241 231 227 231 236 238
242 92 169 235 190 215 213 189 206 221 198 200 192 211 222 218 210 213 221 220 217 219 230 238 252 267 272 271 266 261 260 257 251 247 243 225 222 237 237 238 239 238 242 245
181 164 240 64 55 142 157 220 269 221 218 236 145 139 36 308 256 244 230 220 214 215 200 168 244 273 279 282 272 264 264 261 256 250 241 219 212 246 231 235 241 245 247 251
316 147 184 219 312 18 268 112 6 294 185 168 144 115 263 55 159 179 162 158 141 144 108 247 232 301 302 294 277 279 273 271 268 259 247 223 240 234 231 234 239 247 248 254
290 197 297 12 319 328 140 211 337 23 125 113 81 112 114 104 98 105 116 122 129 153 162 222 238 288 305 316 313 299 294 277 262 252 237 233 240 227 224 230 242 253 249 249
224 46 190 355 344 174 146 119 92 76 80 85 86 89 90 86 82 82 81 75 68 52 28 1 340 308 276 291 276 274 284 265 251 240 231 229 228 226 229 235 262 259 259 281
162 76 312 339 341 111 111 103 97 86 76 68 65 59 64 62 59 56 56 49 38 23 1 343 319 304 307 271 262 270 255 237 218 215 205 201 196 194 195 207 252 274 301 283
102 341 338 18 57 85 89 86 86 83 72 60 52 39 38 35 28 13 6 356 0 355 344 342 337 319 305 263 252 206 183 192 189 191 181 176 167 170 190 259 275 261 264 270
76 189 56 52 73 87 89 83 74 70 68 66 50 46 41 33 25 32 30 20 7 10 357 4 6 337 305 272 212 162 146 170 213 226 212 206 207 210 276 243 246 255 262 263
184 187 142 125 97 89 85 83 80 77 72 70 70 60 45 42 30 21 18 10 357 355 11 8 6 354 327 258 186 228 246 249 234 234 225 225 218 261 238 246 250 250 259 258
121 113 105 112 106 92 86 81 74 71 65 62 60 52 44 40 30 14 1 351 331 328 341 345 319 290 238 205 214 239 234 219 204 201 235 242 264 257 240 230 235 250 251 238
104 108 85 96 87 83 77 75 65 58 48 40 30 23 16 18 7 356 351 335 322 304 296 271 245 248 214 200 197 191 170 176 249 258 245 247 247 247 237 238 247 214 235 260
98 93 86 76 75 64 55 46 38 36 29 14 360 358 354 357 348 334 319 315 309 288 264 243 228 216 200 187 167 180 222 252 248 239 260 268 266 254 248 234 216 240 243 254
96 91 92 75 60 49 35 28 20 17 10 2 347 342 344 339 328 314 308 303 292 285 256 228 229 217 201 204 230 230 225 219 233 230 232 235 220 205 198 219 235 228 236 242
81 53 50 48 41 37 35 27 20 10 2 353 348 344 338 335 321 309 292 289 281 274 244 232 230 218 226 226 231 233 231 214 212 232 254 234 252 260 229 240 233 233 241 226
69 64 50 37 28 19 13 7 354 341 339 344 335 338 338 336 324 312 295 279 276 259 220 221 230 213 221 232 230 213 216 249 268 275 275 271 261 239 223 228 234 253 245 232
45 40 36 31 21 5 358 354 353 356 351 331 340 344 339 340 347 334 298 281 282 222 225 215 210 226 246 245 226 212 221 235 255 261 253 246 237 243 237 246 251 262 243 230
52 48 38 24 8 359 354 349 345 341 340 337 341 344 337 344 348 350 14 50 48 197 230 237 240 251 216 197 194 217 239 245 252 256 241 231 242 246 240 249 252 245 234 245
46 41 29 23 18 8 4 350 337 335 342 346 343 349 351 8 20 41 41 318 216 176 157 178 203 212 194 210 223 236 248 269 289 282 244 236 234 228 226 231 239 238 251 250
45 40 30 21 17 10 1 351 351 341 342 350 349 339 350 360 17 25 53 70 82 105 127 136 152 163 178 197 234 285 305 324 315 244 233 242 236 225 219 227 230 237 241 242
4 360 360 2 6 13 21 11 355 344 6 21 30 29 21 13 12 24 46 60 102 133 139 137 169 211 222 239 221 224 227 238 286 297 289 277 258 238 233 237 244 247 255 258
7 359 343 352 350 341 355 13 18 24 6 356 15 10 0 349 344 330 326 335 193 188 187 171 182 193 199 212 230 245 251 270 299 303 285 281 279 238 237 254 258 263 261 257
3 13 1 356 6 3 352 358 355 352 350 358 353 339 1 3 357 17 33 18 213 215 224 226 229 232 233 234 240 258 255 261 290 292 272 262 257 253 254 263 266 264 263 260
357 355 344 345 344 353 8 346 347 348 332 296 342 335 325 334 344 327 295 319 315 283 268 269 258 251 253 255 258 266 269 268 273 279 285 275 257 252 257 268 283 281 270 261
360 347 338 358 9 344 334 332 328 334 340 323 308 309 304 304 307 301 294 280 271 275 274 273 262 253 259 263 263 265 269 271 270 278 285 285 258 261 267 266 266 273 289 282